Simultaneous Nadir Overpasses (SNOs) Predictions

Prediction of SNOs between LANDSAT-8 and METOP-A Satellite Orbit:

Table of predicted SNOs for the next 14.0 days since TLE Epoch: 9/19/2015
Index Date (LANDSAT-8) Time (LANDSAT-8) Lat,Lon (LANDSAT-8) SZA (LANDSAT-8 ) Date (METOP-A) Time (METOP-A) Lat,Lon (METOP-A) SZA (METOP-A ) Distance(km) Time Diff (sec)
1 09/21/2015 07:49:50 81.24, 104.38 82.84 09/21/2015 07:49:08 81.24, 104.47 82.84 1.62 42
2 09/21/2015 08:39:16 -81.25, -87.66 97.10 09/21/2015 08:39:47 -81.26, -87.53 97.07 2.22 31
3 09/24/2015 03:24:06 81.24, 170.88 83.97 09/24/2015 03:23:29 81.23, 170.71 83.93 2.86 37
4 09/24/2015 04:13:32 -81.26, -21.13 95.97 09/24/2015 04:14:08 -81.25, -21.28 95.98 2.56 36
5 09/26/2015 22:58:22 81.24,-122.68 85.08 09/26/2015 22:57:49 81.24,-122.69 85.07 0.13 33
6
